Regional Weather Roundup
Issued by NWS

Home | Current Version | Previous Version | Graphics & Text | Print | Product List | Glossary Off
Versions: 1 2 3 4 5 6 7 8 9 10 11 12 13 14 15 16 17 18 19 20 21 22 23 24 25 26 27 28 29 30 31 32 33 34 35 36 37 38 39 40 41 42 43 44 45 46 47 48 49 50

000
ASUS43 KFSD 300802
RWRSD

WEATHER ROUNDUP FOR SOUTH DAKOTA
NATIONAL WEATHER SERVICE SIOUX FALLS SD
300 AM CDT TUE MAY 30 2017

NOTE: "FAIR" INDICATES FEW OR NO CLOUDS BELOW 12,000 FEET WITH NO
SIGNIFICANT WEATHER AND/OR OBSTRUCTIONS TO VISIBILITY.


SDZ001>005-009-010-012>017-300900-
NORTHWEST AND NORTH CENTRAL SOUTH DAKOTA

CITY           SKY/WX    TMP DP  RH WIND       PRES   REMARKS
BUFFALO          N/A     45  31  58 NW7       30.04S
FAITH            N/A     44  32  62 W5        30.08S
MOBRIDGE       CLEAR     42  35  76 N7        30.01R
$$

SDZ012>016-024>037-041>051-057-063-072>074-300900-
SOUTHWEST AND SOUTH CENTRAL SOUTH DAKOTA

CITY           SKY/WX    TMP DP  RH WIND       PRES   REMARKS
RAPID CTY ARPT CLEAR     40  29  64 NW8       30.11F
PIERRE         CLEAR     45  35  68 W6        30.04S
CUSTER         CLEAR     37  24  59 CALM      30.18F
ELLSWORTH AFB  CLEAR     39  31  71 W7        30.11S
PHILIP         CLEAR     38  33  82 W8        30.09R
PINE RIDGE     CLEAR     39  37  92 CALM      30.13S
SPEARFISH      FAIR      45  30  57 CALM      30.14F
WINNER         FAIR      43  37  79 SW7       30.07S
$$

SDZ004>011-016>023-039-040-300900-
NORTHEAST SOUTH DAKOTA

CITY           SKY/WX    TMP DP  RH WIND       PRES   REMARKS
ABERDEEN       MOCLDY    42  36  79 W6        29.99R
WATERTOWN      CLEAR     44  40  85 W9        29.96S
BROOKINGS      CLOUDY    51  44  77 W8        29.98S
SISSETON         N/A     52  42  69 NW13      29.93S
$$

SDZ017-020-022-023-036>040-048>070-300900-
SOUTHEAST SOUTH DAKOTA

CITY           SKY/WX    TMP DP  RH WIND       PRES   REMARKS
SIOUX FALLS    CLOUDY    51  46  83 CALM      29.99S
HURON          CLOUDY    50  40  68 W8        30.00S
CHAMBERLAIN    CLEAR     45  40  85 W5        30.05S
MITCHELL       PTCLDY    52  41  66 W8        30.02S
YANKTON        PTCLDY    52  44  74 SW7       30.02S
$$

ABBREVIATIONS USED IN REMARKS
   TC - TEMPERATURE IN CELSIUS
  WCI - WIND CHILL INDEX
   HX - HEAT INDEX
  VSB - VISIBILITY





USA.gov is the U.S. government's official web portal to all federal, state and local government web resources and services.